Time,TemperatureF,DewpointF,PressureIn,WindDirection,WindDirectionDegrees,WindSpeedMPH,WindSpeedGustMPH,Humidity,HourlyPrecipIn,Conditions,Clouds,dailyrainin,SoftwareType,DateUTC
2013-02-21 00:15:00,40.1,30.5,28.11,NE,44,1.3,26.2,91,0.00,,,-99.99,HOBO +U30 +Weather +,2013-02-21 08:15:00,
2013-02-21 00:30:00,40.0,31.5,28.11,NE,35,1.3,27.7,91,0.00,,,-99.99,HOBO +U30 +Weather +,2013-02-21 08:30:00,
2013-02-21 00:45:00,40.0,31.7,28.11,East,88,1.6,25.7,88,0.00,,,-99.99,HOBO +U30 +Weather +,2013-02-21 08:45:00,
2013-02-21 01:00:00,39.9,31.2,28.12,WSW,251,1.3,27.3,90,0.00,,,-99.99,HOBO +U30 +Weather +,2013-02-21 09:00:00,
2013-02-21 01:15:00,39.9,31.8,28.13,NNE,18,1.3,3.4,91,0.00,,,-99.99,HOBO +U30 +Weather +,2013-02-21 09:15:00,
2013-02-21 01:30:00,39.8,31.7,28.12,East,87,1.6,3.4,90,0.00,,,-99.99,HOBO +U30 +Weather +,2013-02-21 09:30:00,
2013-02-21 01:45:00,39.7,31.4,28.13,NE,38,0.9,24.2,92,0.00,,,-99.99,HOBO +U30 +Weather +,2013-02-21 09:45:00,
2013-02-21 02:00:00,39.7,31.1,28.15,WSW,241,1.3,26.6,93,0.00,,,-99.99,HOBO +U30 +Weather +,2013-02-21 10:00:00,
2013-02-21 02:15:00,39.7,31.3,28.14,WSW,243,1.6,24.8,93,0.00,,,-99.99,HOBO +U30 +Weather +,2013-02-21 10:15:00,
2013-02-21 02:30:00,39.7,31.5,28.15,SW,229,0.9,3.4,92,0.00,,,-99.99,HOBO +U30 +Weather +,2013-02-21 10:30:00,
2013-02-21 02:45:00,39.6,31.5,28.14,WSW,244,1.3,2.9,92,0.00,,,-99.99,HOBO +U30 +Weather +,2013-02-21 10:45:00,
2013-02-21 03:00:00,39.5,31.5,28.15,WSW,257,1.3,2.9,92,0.00,,,-99.99,HOBO +U30 +Weather +,2013-02-21 11:00:00,
2013-02-21 03:15:00,39.5,31.7,28.14,NNE,32,0.9,2.9,92,0.00,,,-99.99,HOBO +U30 +Weather +,2013-02-21 11:15:00,
2013-02-21 03:30:00,39.5,31.9,28.16,SW,222,0.9,4.5,93,0.00,,,-99.99,HOBO +U30 +Weather +,2013-02-21 11:30:00,
2013-02-21 03:45:00,39.5,32.1,28.15,SW,225,0.4,2.5,94,0.00,,,-99.99,HOBO +U30 +Weather +,2013-02-21 11:45:00,
2013-02-21 04:00:00,39.4,32.1,28.15,SW,229,0.4,2.0,94,0.00,,,-99.99,HOBO +U30 +Weather +,2013-02-21 12:00:00,
2013-02-21 04:15:00,39.4,31.8,28.15,SSW,213,1.3,3.4,94,0.00,,,-99.99,HOBO +U30 +Weather +,2013-02-21 12:15:00,
2013-02-21 04:30:00,39.4,31.9,28.15,SSW,211,0.4,3.4,94,0.00,,,-99.99,HOBO +U30 +Weather +,2013-02-21 12:30:00,
2013-02-21 04:45:00,39.3,32.0,28.16,WSW,239,0.4,4.5,94,0.00,,,-99.99,HOBO +U30 +Weather +,2013-02-21 12:45:00,
2013-02-21 05:00:00,39.3,32.3,28.16,WSW,246,0.9,2.5,95,0.00,,,-99.99,HOBO +U30 +Weather +,2013-02-21 13:00:00,
2013-02-21 05:15:00,39.3,32.5,28.16,WSW,246,0.4,2.5,95,0.00,,,-99.99,HOBO +U30 +Weather +,2013-02-21 13:15:00,
2013-02-21 05:30:00,39.3,32.2,28.17,WSW,246,0.4,30.0,95,0.00,,,-99.99,HOBO +U30 +Weather +,2013-02-21 13:30:00,
2013-02-21 05:45:00,39.2,32.3,28.17,WSW,246,0.4,2.5,95,0.00,,,-99.99,HOBO +U30 +Weather +,2013-02-21 13:45:00,
2013-02-21 06:00:00,39.2,32.5,28.17,WSW,254,0.4,2.5,96,0.00,,,-99.99,HOBO +U30 +Weather +,2013-02-21 14:00:00,
2013-02-21 06:15:00,39.2,32.4,28.17,NNW,345,0.9,2.5,96,0.30,,,-99.99,HOBO +U30 +Weather +,2013-02-21 14:15:00,
2013-02-21 06:30:00,39.2,32.1,28.17,North,355,0.4,29.1,96,0.00,,,-99.99,HOBO +U30 +Weather +,2013-02-21 14:30:00,
2013-02-21 06:45:00,39.1,32.2,28.17,North,355,0.0,0.9,96,0.00,,,-99.99,HOBO +U30 +Weather +,2013-02-21 14:45:00,
2013-02-21 07:00:00,39.1,32.1,28.17,North,355,0.9,28.6,96,0.00,,,-99.99,HOBO +U30 +Weather +,2013-02-21 15:00:00,
2013-02-21 07:15:00,39.0,32.5,28.18,NNE,15,2.0,5.8,96,0.30,,,-99.99,HOBO +U30 +Weather +,2013-02-21 15:15:00,
2013-02-21 07:30:00,39.0,32.5,28.18,North,0,0.4,2.0,96,0.00,,,-99.99,HOBO +U30 +Weather +,2013-02-21 15:30:00,
2013-02-21 07:45:00,39.0,32.8,28.18,NW,324,0.9,26.2,96,0.30,,,-99.99,HOBO +U30 +Weather +,2013-02-21 15:45:00,
2013-02-21 08:00:00,38.9,32.8,28.19,North,0,0.4,25.7,96,0.00,,,-99.99,HOBO +U30 +Weather +,2013-02-21 16:00:00,
2013-02-21 08:15:00,38.9,32.9,28.19,North,7,0.0,21.5,96,0.30,,,-99.99,HOBO +U30 +Weather +,2013-02-21 16:15:00,
2013-02-21 08:30:00,38.9,32.8,28.19,North,6,0.0,26.6,95,0.00,,,-99.99,HOBO +U30 +Weather +,2013-02-21 16:30:00,
2013-02-21 08:45:00,38.9,33.1,28.19,North,10,0.0,0.0,95,0.30,,,-99.99,HOBO +U30 +Weather +,2013-02-21 16:45:00,
2013-02-21 09:00:00,38.8,33.2,28.19,NNW,327,0.0,0.0,95,0.30,,,-99.99,HOBO +U30 +Weather +,2013-02-21 17:00:00,
2013-02-21 09:15:00,38.8,33.4,28.19,NNE,13,0.0,0.0,95,0.00,,,-99.99,HOBO +U30 +Weather +,2013-02-21 17:15:00,
2013-02-21 09:30:00,38.8,33.3,28.20,NNE,22,0.0,0.0,95,0.00,,,-99.99,HOBO +U30 +Weather +,2013-02-21 17:30:00,
2013-02-21 09:45:00,38.8,33.4,28.19,NE,35,0.0,0.0,96,0.00,,,-99.99,HOBO +U30 +Weather +,2013-02-21 17:45:00,
2013-02-21 10:00:00,38.8,33.0,28.19,SW,227,0.0,0.0,96,0.00,,,-99.99,HOBO +U30 +Weather +,2013-02-21 18:00:00,
2013-02-21 10:15:00,38.8,33.7,28.19,SW,220,0.0,0.0,96,0.00,,,-99.99,HOBO +U30 +Weather +,2013-02-21 18:15:00,
2013-02-21 10:30:00,38.8,34.4,28.20,SW,220,0.0,0.0,95,0.00,,,-99.99,HOBO +U30 +Weather +,2013-02-21 18:30:00,
2013-02-21 10:45:00,38.8,33.9,28.20,SW,220,0.0,0.0,95,0.00,,,-99.99,HOBO +U30 +Weather +,2013-02-21 18:45:00,
2013-02-21 11:00:00,38.8,33.7,28.19,SW,220,0.0,0.0,95,0.00,,,-99.99,HOBO +U30 +Weather +,2013-02-21 19:00:00,
2013-02-21 11:15:00,38.8,33.3,28.20,SW,219,0.0,0.0,95,0.30,,,-99.99,HOBO +U30 +Weather +,2013-02-21 19:15:00,
2013-02-21 11:30:00,38.8,33.4,28.20,SW,223,0.0,0.0,95,0.00,,,-99.99,HOBO +U30 +Weather +,2013-02-21 19:30:00,
2013-02-21 11:45:00,38.8,34.1,28.20,SW,223,0.0,0.0,96,0.30,,,-99.99,HOBO +U30 +Weather +,2013-02-21 19:45:00,
2013-02-21 12:00:00,38.9,34.3,28.20,South,187,0.0,0.0,95,0.00,,,-99.99,HOBO +U30 +Weather +,2013-02-21 20:00:00,
2013-02-21 12:15:00,38.9,34.2,28.19,South,185,0.0,0.0,95,0.00,,,-99.99,HOBO +U30 +Weather +,2013-02-21 20:15:00,
2013-02-21 12:30:00,38.9,34.1,28.18,SSE,152,0.0,0.0,94,0.50,,,-99.99,HOBO +U30 +Weather +,2013-02-21 20:30:00,
2013-02-21 12:45:00,38.9,34.6,28.18,NE,53,0.0,0.0,94,0.00,,,-99.99,HOBO +U30 +Weather +,2013-02-21 20:45:00,
2013-02-21 13:00:00,39.0,34.8,28.17,NE,48,0.0,0.0,95,0.30,,,-99.99,HOBO +U30 +Weather +,2013-02-21 21:00:00,
2013-02-21 13:15:00,39.0,33.6,28.17,NW,319,0.0,0.0,93,0.30,,,-99.99,HOBO +U30 +Weather +,2013-02-21 21:15:00,
2013-02-21 13:30:00,39.0,34.8,28.17,ENE,60,0.0,0.0,95,0.00,,,-99.99,HOBO +U30 +Weather +,2013-02-21 21:30:00,
2013-02-21 13:45:00,39.1,34.7,28.16,ENE,60,0.0,0.0,95,0.00,,,-99.99,HOBO +U30 +Weather +,2013-02-21 21:45:00,
2013-02-21 14:00:00,39.1,33.9,28.17,ENE,66,0.0,0.0,95,0.30,,,-99.99,HOBO +U30 +Weather +,2013-02-21 22:00:00,
2013-02-21 14:15:00,39.1,33.0,28.15,NE,44,0.0,0.0,96,0.30,,,-99.99,HOBO +U30 +Weather +,2013-02-21 22:15:00,
2013-02-21 14:30:00,39.1,33.9,28.15,NE,44,2.0,5.8,95,0.00,,,-99.99,HOBO +U30 +Weather +,2013-02-21 22:30:00,
2013-02-21 14:45:00,39.1,34.9,28.15,NNE,20,0.9,4.9,96,0.00,,,-99.99,HOBO +U30 +Weather +,2013-02-21 22:45:00,
2013-02-21 15:00:00,39.1,35.1,28.16,NNE,27,1.3,4.9,95,0.00,,,-99.99,HOBO +U30 +Weather +,2013-02-21 23:00:00,
2013-02-21 15:15:00,39.2,34.9,28.17,NNE,32,1.6,22.4,96,0.30,,,-99.99,HOBO +U30 +Weather +,2013-02-21 23:15:00,
2013-02-21 15:30:00,39.2,35.0,28.16,ENE,58,0.4,2.9,95,0.00,,,-99.99,HOBO +U30 +Weather +,2013-02-21 23:30:00,
2013-02-21 15:45:00,39.2,34.5,28.17,NNW,341,0.4,22.4,95,0.30,,,-99.99,HOBO +U30 +Weather +,2013-02-21 23:45:00,
2013-02-21 16:00:00,39.2,35.1,28.16,NW,313,0.0,17.0,96,0.00,,,-99.99,HOBO +U30 +Weather +,2013-02-22 00:00:00,
2013-02-21 16:15:00,39.2,34.9,28.17,WNW,299,0.0,27.1,96,0.00,,,-99.99,HOBO +U30 +Weather +,2013-02-22 00:15:00,
2013-02-21 16:30:00,39.2,34.7,28.17,NW,320,0.0,22.4,96,0.30,,,-99.99,HOBO +U30 +Weather +,2013-02-22 00:30:00,
2013-02-21 16:45:00,39.2,34.9,28.17,North,355,0.0,22.4,95,0.00,,,-99.99,HOBO +U30 +Weather +,2013-02-22 00:45:00,
2013-02-21 17:00:00,39.2,34.8,28.16,North,3,0.4,26.2,95,0.00,,,-99.99,HOBO +U30 +Weather +,2013-02-22 01:00:00,
2013-02-21 17:15:00,39.2,35.0,28.17,NNE,25,0.0,21.9,96,0.00,,,-99.99,HOBO +U30 +Weather +,2013-02-22 01:15:00,
2013-02-21 17:30:00,39.2,34.5,28.16,NNE,24,0.0,20.8,96,0.00,,,-99.99,HOBO +U30 +Weather +,2013-02-22 01:30:00,
2013-02-21 17:45:00,39.2,34.6,28.17,North,1,0.0,21.3,96,0.00,,,-99.99,HOBO +U30 +Weather +,2013-02-22 01:45:00,
2013-02-21 18:00:00,39.2,34.6,28.18,North,352,1.6,20.8,95,0.00,,,-99.99,HOBO +U30 +Weather +,2013-02-22 02:00:00,
2013-02-21 18:15:00,39.2,34.7,28.19,North,355,2.9,26.6,95,0.00,,,-99.99,HOBO +U30 +Weather +,2013-02-22 02:15:00,
2013-02-21 18:30:00,39.2,34.5,28.19,North,4,2.0,7.4,94,0.00,,,-99.99,HOBO +U30 +Weather +,2013-02-22 02:30:00,
2013-02-21 18:45:00,39.2,34.5,28.19,NNE,21,1.3,4.3,95,0.00,,,-99.99,HOBO +U30 +Weather +,2013-02-22 02:45:00,
2013-02-21 19:00:00,39.2,34.3,28.19,NNE,32,2.0,30.2,95,0.00,,,-99.99,HOBO +U30 +Weather +,2013-02-22 03:00:00,
2013-02-21 19:15:00,39.2,34.4,28.18,NE,45,0.4,9.6,96,0.00,,,-99.99,HOBO +U30 +Weather +,2013-02-22 03:15:00,
2013-02-21 19:30:00,39.1,34.5,28.18,NE,49,0.9,24.4,97,0.00,,,-99.99,HOBO +U30 +Weather +,2013-02-22 03:30:00,
2013-02-21 19:45:00,39.1,34.3,28.17,SSW,212,0.4,2.9,97,0.00,,,-99.99,HOBO +U30 +Weather +,2013-02-22 03:45:00,
2013-02-21 20:00:00,39.1,34.0,28.18,SW,222,0.4,2.9,97,0.00,,,-99.99,HOBO +U30 +Weather +,2013-02-22 04:00:00,
2013-02-21 20:15:00,39.1,34.1,28.18,ENE,70,0.0,2.0,97,0.00,,,-99.99,HOBO +U30 +Weather +,2013-02-22 04:15:00,
2013-02-21 20:45:00,39.1,33.9,28.17,SW,218,0.0,26.2,97,0.00,,,-99.99,HOBO +U30 +Weather +,2013-02-22 04:45:00,
2013-02-21 21:00:00,39.0,34.1,28.18,WSW,239,0.0,4.3,97,0.00,,,-99.99,HOBO +U30 +Weather +,2013-02-22 05:00:00,
2013-02-21 21:15:00,39.0,34.2,28.19,West,279,0.0,6.7,97,0.00,,,-99.99,HOBO +U30 +Weather +,2013-02-22 05:15:00,
2013-02-21 21:30:00,39.0,34.5,28.19,NNW,330,0.0,0.4,97,0.00,,,-99.99,HOBO +U30 +Weather +,2013-02-22 05:30:00,
2013-02-21 21:45:00,39.0,34.6,28.20,NW,305,0.4,4.3,97,0.30,,,-99.99,HOBO +U30 +Weather +,2013-02-22 05:45:00,
2013-02-21 22:00:00,39.0,34.2,28.21,WNW,302,0.0,31.1,97,0.00,,,-99.99,HOBO +U30 +Weather +,2013-02-22 06:00:00,
2013-02-21 22:15:00,39.0,34.5,28.21,NW,316,0.0,27.1,97,0.00,,,-99.99,HOBO +U30 +Weather +,2013-02-22 06:15:00,
2013-02-21 22:30:00,39.0,33.9,28.21,NW,316,0.0,27.7,97,0.00,,,-99.99,HOBO +U30 +Weather +,2013-02-22 06:30:00,
2013-02-21 22:45:00,38.9,33.8,28.20,NW,316,0.0,25.7,97,0.00,,,-99.99,HOBO +U30 +Weather +,2013-02-22 06:45:00,
2013-02-21 23:00:00,38.9,33.8,28.20,NW,316,0.0,0.0,97,0.00,,,-99.99,HOBO +U30 +Weather +,2013-02-22 07:00:00,
2013-02-21 23:15:00,38.9,33.7,28.20,NW,316,0.0,0.0,97,0.00,,,-99.99,HOBO +U30 +Weather +,2013-02-22 07:15:00,
2013-02-21 23:30:00,38.9,33.7,28.19,NW,316,0.0,0.0,97,0.00,,,-99.99,HOBO +U30 +Weather +,2013-02-22 07:30:00,
2013-02-21 23:45:00,38.9,33.8,28.19,NW,316,0.0,0.0,98,0.00,,,-99.99,HOBO +U30 +Weather +,2013-02-22 07:45:00,